User: anonymous   Login
Location: Caltech
(34.1382°N, 118.1253°W)
Time: 14:59:43
(UTC-08:00)
Language:

Hubble Space Telescope - Orbit

View from above orbital plane
View from above orbital plane
View from above satellite
View from above satellite

Ground track
Ground track

The orbit data is extracted from the following two-line orbital elements,

1 20580U 90037B   18051.51648674  .00000513  00000-0  20519-4 0  9990
2 20580  28.4689 166.3339 0002625 329.7027 115.6060 15.08982326327825
Epoch (UTC): 20 February 2018 12:23:44
Eccentricity: 0.0002625
inclination: 28.4689°
perigee height: 537 km
apogee height: 541 km
right ascension of ascending node: 166.3339°
argument of perigee: 329.7027°
revolutions per day: 15.08982326
mean anomaly at epoch: 115.6060°
orbit number at epoch: 32782

The dashed part of the orbit path shows where the satellite is in the earth's shadow,  

DLR